Temperature
29 26 25 26 26 27 28 27 27 27 28 26 25 25 24 25 24 24 23 23 22 22 22 22 22 21 21 21 20 20 20 20 19 19 19 19 19 19 19 19 19 19 19 18
26 26 28 29 29 29 28 27 27 27 28 27 25 25 25 25 24 24 23 23 22 22 22 22 21 21 21 21 21 20 20 20 19 19 19 19 19 19 18 18 19 19 19 18
27 27 30 30 29 29 28 27 27 27 27 26 26 25 24 25 24 24 23 23 23 22 22 22 21 21 21 21 21 20 20 20 20 19 19 19 19 19 18 18 19 19 18 18
27 29 30 29 29 29 27 29 29 28 26 24 25 23 24 24 23 23 23 22 22 22 22 22 21 21 21 21 21 21 20 20 19 19 19 19 19 19 19 19 19 18 18 18
27 29 29 29 29 30 29 29 29 28 26 24 24 23 23 23 23 23 22 22 22 22 22 21 21 21 21 21 21 20 20 20 20 19 19 19 19 19 19 19 19 19 18 18
28 29 29 29 30 30 29 28 26 24 23 23 24 23 23 22 23 23 23 22 22 22 22 22 21 21 21 21 21 20 20 20 20 19 19 19 19 19 19 19 19 19 19 18
27 28 29 30 29 28 27 24 23 23 22 22 23 23 22 23 24 24 23 23 23 22 22 22 21 21 21 21 20 20 20 20 20 19 19 19 19 19 19 19 19 19 19 19
25 25 28 29 28 27 27 24 23 23 23 22 23 23 23 24 24 24 24 23 23 22 22 22 21 21 21 21 20 20 20 20 20 19 19 19 19 19 19 19 19 19 19 19
24 25 28 29 29 28 27 25 23 22 22 22 22 22 23 24 23 23 23 23 22 22 22 22 22 21 21 21 20 20 20 20 20 19 19 19 19 19 19 19 19 19 19 19
25 26 27 29 29 28 27 25 22 22 22 22 22 22 21 22 22 22 22 22 22 22 22 22 21 21 21 21 20 20 20 20 20 19 19 19 19 19 19 19 19 19 19 18
25 24 25 26 27 27 27 26 22 20 20 21 21 21 23 22 22 21 21 22 22 22 22 22 21 21 21 21 20 20 20 20 19 19 19 19 19 18 18 18 18 18 18 18
24 21 22 24 26 27 27 26 23 22 22 20 20 21 24 22 22 22 22 22 22 22 22 22 21 21 21 21 20 20 20 19 19 19 19 19 19 18 18 18 18 18 18 18
24 21 21 23 23 25 26 26 24 21 20 19 20 22 23 22 22 22 22 22 22 22 21 21 21 21 20 20 20 20 20 20 19 19 19 19 18 18 18 18 18 18 18 18
24 20 21 22 23 24 25 26 25 22 20 20 21 21 21 21 21 21 21 22 22 22 21 21 21 21 20 20 20 20 20 19 19 19 19 18 18 18 18 18 17 17 17 17
22 22 23 23 24 25 25 25 25 24 22 21 21 21 21 20 20 21 21 21 21 21 21 21 20 20 20 20 19 19 19 19 19 19 18 18 18 18 17 17 17 17 17 17
19 21 22 22 24 24 24 25 25 24 23 22 21 21 21 21 21 21 21 20 20 20 20 20 20 20 20 20 19 19 19 19 19 18 18 18 18 17 17 17 17 17 17 17
18 19 20 20 22 23 22 23 23 23 22 22 20 20 20 19 20 20 20 20 20 20 20 20 20 20 20 19 19 19 19 19 18 18 18 18 17 17 17 17 17 17 17 17
19 18 17 19 21 22 21 23 23 23 22 21 20 20 20 20 20 20 20 20 19 19 19 20 20 20 19 19 19 19 19 18 18 18 18 17 17 17 17 17 17 16 16 16
18 18 18 17 19 20 22 23 23 22 20 20 19 19 20 20 19 19 19 19 19 19 19 19 19 19 19 19 19 18 18 18 18 17 17 17 17 17 17 16 16 16 16 16
17 17 17 18 19 20 20 22 23 21 19 19 19 19 19 19 17 17 19 19 19 19 19 19 19 19 18 18 18 18 18 18 17 17 17 17 17 16 16 16 16 16 16 16
18 17 17 17 18 19 20 21 22 20 18 19 19 19 19 18 18 18 18 18 18 18 18 19 18 18 18 18 18 18 17 17 17 17 17 16 16 16 16 16 16 15 15 15
17 17 16 16 17 18 19 20 19 18 19 19 19 19 19 18 18 18 18 18 18 18 18 18 18 17 17 17 17 17 17 17 17 16 16 16 16 16 15 15 15 15 15 15
16 16 15 16 16 17 19 19 20 20 19 19 19 18 19 18 17 17 17 17 17 17 17 17 17 17 16 16 16 16 16 16 16 16 16 16 15 15 15 15 15 15 15 15
17 16 15 15 16 18 19 19 19 19 19 19 19 19 18 18 17 17 17 17 17 17 16 16 16 16 16 16 16 15 15 15 15 15 15 15 15 15 15 15 14 14 14 14
16 16 15 15 16 17 18 18 18 18 19 19 19 18 18 18 17 17 16 16 16 16 16 16 16 16 15 15 15 15 15 15 15 15 15 14 14 14 14 14 14 14 14 14
15 15 15 15 16 16 17 18 18 18 18 18 18 17 17 17 16 16 16 16 16 16 15 15 15 15 15 15 15 15 15 14 14 14 14 14 14 14 14 14 14 13 13 13
Wind_Speed
2 2 4 8 8 8 4 2 3 3 4 4 5 6 9 10 10 11 11 12 12 12 11 12 13 12 11 9 9 8 7 6 5 4 3 2 2 2 2 3 4 5 5 5
4 5 10 8 5 1 1 0 2 1 2 4 5 4 7 9 12 13 14 14 13 10 10 12 12 12 11 11 10 8 8 7 6 5 4 3 3 2 2 2 3 6 6 6
6 8 5 3 4 2 2 2 2 2 1 3 4 2 3 5 5 7 9 10 11 14 14 14 13 11 11 11 11 10 9 7 7 6 3 2 2 1 1 1 2 4 6 6
6 7 3 3 4 3 4 4 2 3 3 2 3 2 5 5 5 7 8 8 8 10 11 12 12 11 11 11 10 9 8 8 7 6 6 6 4 4 4 3 3 3 4 5
5 4 3 4 6 4 5 4 2 1 2 2 2 3 5 3 5 7 8 9 8 9 11 12 12 12 11 10 9 8 7 7 7 7 7 7 5 4 3 2 3 3 3 4
7 4 4 5 5 3 1 5 7 6 5 1 3 3 4 4 8 8 8 9 9 9 10 10 10 9 8 8 8 8 7 7 7 7 7 8 7 6 4 4 4 3 3 3
6 6 4 1 3 6 4 5 5 6 5 4 3 2 5 4 5 9 10 10 9 9 9 9 9 10 10 10 9 8 8 7 7 7 7 8 8 7 7 6 5 4 3 4
1 6 5 3 5 5 2 8 6 4 4 4 3 1 4 3 3 4 6 8 9 8 9 10 11 11 10 10 9 8 9 8 7 7 7 6 6 5 5 5 5 5 5 5
4 6 6 4 3 5 1 2 8 7 2 1 2 2 4 1 4 5 5 6 8 8 9 9 10 10 10 10 10 10 9 8 7 7 6 6 5 5 5 5 4 4 4 4
6 3 6 4 2 2 5 5 6 4 3 1 3 3 4 3 3 4 4 5 6 7 7 7 8 8 9 9 9 9 8 8 7 6 6 6 5 5 5 4 5 5 5 4
5 4 5 4 0 4 1 2 5 4 5 6 3 5 5 8 7 7 5 5 6 6 6 7 7 8 8 8 8 8 8 7 6 6 6 5 4 5 4 5 6 6 5 5
2 5 3 6 6 4 3 4 6 4 3 4 4 6 4 6 7 7 6 4 5 5 5 5 6 5 5 7 8 8 8 8 7 7 6 6 5 4 5 6 6 5 6 5
2 5 1 7 8 5 1 0 4 6 4 3 4 5 3 2 4 6 7 6 6 6 6 5 4 4 4 6 8 8 8 8 7 6 6 5 5 5 5 6 5 5 5 6
4 4 6 7 8 5 4 4 2 4 4 3 5 4 2 2 3 4 5 6 6 6 6 6 5 5 5 5 6 7 7 7 6 6 5 6 6 6 5 5 5 4 5 5
4 2 2 4 5 1 2 3 2 2 6 6 5 4 6 5 6 6 6 6 6 5 4 5 5 5 5 5 5 6 6 5 6 6 5 5 5 4 3 3 3 4 4 5
4 2 2 4 3 2 2 2 2 2 1 4 3 1 3 2 3 3 3 4 5 4 4 4 4 4 5 5 5 5 5 5 5 5 5 4 3 3 3 4 3 3 3 4
2 2 2 3 5 3 3 2 1 1 1 3 3 4 2 2 3 4 5 5 5 4 4 3 4 4 5 5 5 6 5 4 4 4 4 3 3 3 3 3 3 3 4 3
3 2 3 1 3 2 6 1 4 4 3 2 2 2 4 5 4 3 3 4 4 3 3 2 3 3 3 3 4 4 4 4 3 3 2 2 3 3 3 3 3 4 3 3
6 6 3 3 2 3 4 4 0 2 2 3 2 1 2 4 5 3 2 2 3 3 3 3 3 3 2 2 3 4 3 4 3 3 3 3 3 3 3 4 4 3 3 2
4 5 5 3 3 4 5 5 1 6 1 4 2 2 3 5 3 2 1 2 3 2 1 1 2 3 3 1 2 4 3 3 3 3 3 3 2 3 4 4 4 3 2 3
2 3 3 3 4 5 5 6 5 3 4 3 1 2 3 2 3 2 1 3 3 3 2 3 3 2 1 2 3 3 2 3 3 2 2 2 2 2 2 2 2 2 2 1
3 2 2 3 3 5 5 4 3 5 3 1 2 2 4 4 4 4 4 4 4 4 4 4 4 4 3 2 3 2 1 2 1 1 1 1 1 2 1 1 1 1 2 2
2 5 5 5 5 4 1 2 3 4 3 2 2 3 5 5 4 3 3 4 3 4 4 3 4 4 4 3 3 2 1 1 2 2 2 1 1 1 2 2 2 1 1 2
3 1 3 1 0 1 2 3 2 3 3 3 4 5 6 4 3 3 2 2 2 3 3 3 4 4 3 2 2 1 0 0 1 2 2 2 1 1 1 1 2 2 2 2
4 1 2 1 1 2 3 1 2 3 3 4 4 4 5 5 3 2 2 1 1 1 2 2 2 2 1 1 2 2 2 2 1 1 1 1 2 2 1 1 1 2 3 4
2 3 4 4 5 3 4 3 1 3 2 3 4 3 3 4 3 2 1 0 0 1 1 1 1 1 1 1 2 2 2 1 1 1 0 1 2 2 2 1 1 2 1 2
Wind_Direction
293 100 244 240 224 218 221 221 245 230 179 131 149 164 180 183 176 173 172 174 175 175 168 164 164 163 159 159 158 162 164 171 162 160 167 167 185 191 187 191 190 189 191 183
5 264 239 237 255 246 196 246 273 293 143 135 148 173 184 186 188 180 175 177 177 168 164 166 166 166 168 170 171 171 174 177 177 181 180 174 169 183 198 209 198 197 194 192
220 247 253 260 278 276 285 210 215 188 35 81 108 14 191 190 176 168 170 169 171 172 172 172 172 173 172 176 179 180 181 180 182 178 161 152 125 105 175 208 214 212 203 201
243 253 268 273 279 233 273 260 214 165 100 250 140 191 257 186 163 178 174 164 169 173 173 172 171 172 176 183 183 179 179 180 183 175 169 168 175 191 206 201 205 218 212 208
258 242 251 261 260 250 248 258 241 231 128 53 17 126 268 165 174 189 185 178 171 171 173 175 178 181 180 178 176 176 175 183 186 183 181 180 192 202 203 196 201 218 227 219
254 251 215 236 267 255 263 12 10 40 69 18 253 141 262 213 191 181 182 179 177 177 178 178 176 172 175 175 178 176 177 193 194 190 189 189 194 196 197 206 211 221 228 230
312 306 287 256 320 325 47 70 21 359 8 267 280 108 246 228 188 174 173 176 176 176 172 165 168 176 176 176 183 180 182 194 195 195 199 201 201 199 203 208 210 210 221 228
247 289 272 246 204 220 204 136 155 205 226 265 339 194 246 227 163 153 154 165 165 168 168 166 178 184 182 180 182 179 186 195 194 195 206 208 206 208 215 215 213 215 223 227
183 255 272 257 224 159 186 190 175 151 163 92 293 276 301 21 75 92 118 139 162 175 178 175 179 180 181 182 184 184 187 195 197 196 200 207 206 209 217 218 216 221 227 229
163 243 283 287 9 347 164 163 87 107 149 243 283 256 231 211 158 125 131 158 168 169 172 177 174 176 184 185 185 181 182 191 195 197 201 208 212 215 217 216 222 225 228 229
152 174 294 346 260 250 327 92 109 126 151 157 225 266 222 195 179 162 163 166 158 157 169 175 173 184 184 181 179 182 184 185 191 195 198 203 209 212 217 225 230 230 232 228
141 134 253 266 259 213 174 172 145 150 233 166 167 260 266 179 163 158 159 152 135 137 144 160 167 172 185 181 181 184 185 186 194 195 194 201 207 212 218 229 235 232 233 234
107 111 48 330 331 341 351 278 149 140 128 150 168 255 322 114 134 144 149 158 157 134 130 129 137 164 188 195 186 184 184 188 191 188 192 203 211 215 224 236 240 237 237 240
124 108 159 204 234 254 290 301 294 127 151 196 204 215 269 172 157 158 160 167 159 149 147 142 152 174 189 191 188 183 186 187 183 181 190 203 216 222 230 237 239 239 238 239
86 123 196 230 245 262 294 300 352 127 173 176 207 202 228 210 190 180 173 162 152 150 148 157 172 185 186 181 184 184 183 181 180 178 188 204 213 216 222 232 240 242 240 241
48 119 26 326 320 6 4 360 31 18 127 147 128 276 257 177 126 142 160 151 154 168 171 181 191 188 187 182 187 187 187 185 175 177 193 203 204 211 221 231 238 240 245 246
21 91 86 281 308 28 325 281 111 56 45 139 165 231 191 130 155 172 163 158 164 176 180 181 194 193 191 192 186 180 185 174 169 180 192 192 197 211 227 232 238 241 243 238
153 110 132 193 33 233 240 230 116 101 54 60 132 181 170 170 164 139 120 145 161 166 172 187 189 188 188 186 171 165 157 150 166 180 202 210 208 217 225 230 240 243 236 233
170 152 123 121 179 264 302 321 5 120 1 8 98 97 99 111 81 42 39 98 141 159 167 185 173 156 148 158 169 156 158 161 164 188 215 222 213 218 217 224 236 236 233 235
78 112 124 132 166 223 251 293 298 104 14 328 86 125 128 101 94 268 331 58 71 88 115 140 131 126 127 171 161 150 171 175 184 209 222 222 208 218 219 223 227 225 218 228
52 59 132 171 203 247 274 314 33 101 234 289 47 131 120 123 175 196 91 66 65 75 88 89 81 88 122 157 144 151 176 210 216 205 199 198 183 218 221 220 223 224 219 215
156 139 177 158 186 248 302 29 109 196 201 129 78 99 97 87 78 80 78 75 70 69 72 77 72 58 50 67 100 119 200 230 173 141 173 215 188 226 242 202 213 216 198 195
154 177 176 176 205 242 338 133 167 147 126 106 110 103 97 92 84 78 72 78 71 67 56 68 77 63 51 51 72 82 295 236 153 156 189 213 198 229 224 199 198 212 199 193
307 76 104 89 275 340 50 70 63 97 131 130 120 117 108 100 92 69 65 63 60 54 56 58 73 64 41 34 46 55 14 332 155 174 183 166 169 207 197 202 199 187 200 199
261 12 75 126 243 37 8 19 69 62 71 97 103 110 125 120 108 99 89 63 44 34 28 47 78 74 37 28 25 16 34 68 89 149 166 158 180 195 188 190 218 213 221 204
245 175 169 215 215 185 244 256 119 99 97 129 119 97 103 121 121 98 87 356 76 62 53 7 18 33 2 12 15 13 21 58 89 95 154 182 182 188 191 188 321 341 266 234
Height
1496 1503 1508 1503 1498 1499 1501 1507 1509 1504 1497 1501 1506 1508 1508 1508 1508 1510 1512 1514 1516 1517 1520 1522 1524 1526 1527 1529 1530 1532 1533 1535 1536 1537 1538 1540 1541 1542 1542 1543 1544 1544 1545 1545
1502 1505 1495 1491 1490 1493 1499 1507 1507 1501 1496 1500 1506 1509 1507 1506 1506 1506 1508 1511 1513 1517 1519 1521 1523 1524 1526 1527 1529 1531 1532 1534 1535 1536 1538 1539 1540 1541 1542 1542 1543 1543 1543 1544
1504 1496 1488 1490 1493 1497 1500 1504 1504 1504 1500 1501 1507 1516 1511 1507 1507 1508 1509 1509 1511 1514 1516 1518 1520 1522 1524 1526 1527 1529 1531 1533 1534 1536 1537 1539 1540 1540 1541 1541 1541 1542 1542 1542
1496 1489 1488 1491 1494 1494 1504 1492 1493 1498 1509 1518 1512 1533 1516 1508 1508 1508 1509 1510 1511 1513 1515 1517 1518 1520 1522 1524 1526 1528 1529 1531 1533 1535 1536 1536 1537 1537 1538 1539 1540 1541 1541 1541
1495 1488 1489 1493 1491 1489 1493 1486 1490 1495 1507 1518 1516 1528 1522 1510 1512 1508 1507 1507 1509 1511 1513 1514 1517 1519 1521 1523 1525 1527 1528 1530 1531 1533 1534 1535 1536 1537 1538 1539 1539 1539 1539 1540
1488 1483 1485 1486 1483 1483 1485 1489 1495 1503 1515 1532 1521 1527 1528 1514 1507 1505 1506 1506 1506 1509 1510 1513 1516 1518 1520 1522 1524 1526 1527 1528 1530 1531 1532 1533 1534 1535 1536 1536 1537 1537 1538 1538
1495 1487 1482 1481 1487 1486 1489 1510 1532 1535 1542 1539 1519 1524 1524 1505 1499 1500 1501 1503 1504 1506 1508 1510 1514 1516 1518 1520 1522 1524 1525 1526 1528 1529 1530 1531 1532 1533 1533 1534 1534 1535 1535 1535
1510 1508 1486 1481 1485 1492 1493 1507 1534 1546 1547 1538 1523 1527 1515 1500 1497 1498 1499 1501 1503 1505 1506 1508 1511 1513 1516 1518 1519 1521 1523 1524 1525 1526 1528 1529 1530 1531 1531 1532 1532 1532 1532 1533
1507 1505 1482 1477 1477 1483 1493 1502 1504 1525 1531 1539 1533 1522 1509 1500 1499 1498 1499 1500 1502 1503 1505 1506 1509 1511 1514 1515 1517 1518 1520 1521 1523 1524 1525 1526 1527 1527 1528 1529 1529 1530 1530 1530
1492 1501 1488 1479 1478 1479 1484 1492 1510 1525 1540 1546 1536 1530 1523 1508 1503 1501 1500 1499 1500 1502 1504 1507 1508 1510 1512 1513 1515 1516 1517 1519 1520 1521 1522 1523 1524 1524 1525 1526 1526 1526 1527 1527
1485 1500 1496 1488 1490 1491 1489 1494 1506 1521 1527 1542 1547 1534 1503 1501 1499 1500 1500 1500 1501 1502 1503 1505 1507 1508 1510 1511 1512 1513 1514 1516 1517 1518 1519 1520 1520 1521 1522 1522 1522 1523 1523 1524
1485 1499 1507 1496 1483 1479 1483 1490 1502 1520 1525 1530 1537 1529 1494 1494 1495 1497 1498 1500 1501 1501 1503 1504 1505 1507 1509 1509 1510 1510 1511 1513 1514 1515 1516 1516 1517 1518 1518 1518 1518 1519 1519 1520
1485 1500 1517 1512 1501 1488 1487 1486 1492 1504 1517 1528 1534 1523 1495 1494 1494 1495 1497 1498 1499 1500 1501 1502 1504 1505 1507 1507 1507 1508 1508 1509 1511 1512 1512 1513 1513 1514 1514 1514 1514 1515 1515 1515
1480 1499 1511 1518 1511 1497 1493 1489 1488 1499 1518 1522 1519 1513 1502 1498 1496 1496 1495 1496 1496 1497 1498 1499 1501 1501 1503 1504 1505 1505 1506 1507 1508 1509 1509 1509 1510 1510 1511 1510 1510 1510 1511 1511
1483 1497 1495 1495 1490 1488 1489 1488 1487 1493 1500 1510 1508 1506 1500 1496 1494 1494 1493 1493 1494 1495 1496 1497 1498 1499 1501 1501 1502 1503 1503 1504 1505 1505 1506 1506 1507 1507 1507 1507 1506 1507 1507 1507
1488 1495 1495 1495 1488 1487 1490 1487 1487 1490 1492 1497 1500 1502 1493 1492 1493 1493 1493 1492 1493 1493 1494 1495 1496 1497 1498 1498 1499 1499 1500 1501 1502 1502 1502 1503 1503 1503 1503 1503 1503 1503 1503 1503
1494 1497 1503 1506 1494 1492 1502 1492 1490 1493 1492 1494 1501 1499 1492 1493 1492 1491 1491 1492 1491 1492 1493 1494 1494 1494 1495 1496 1496 1495 1496 1498 1499 1499 1500 1500 1500 1500 1499 1499 1499 1499 1499 1499
1493 1499 1506 1508 1504 1514 1502 1485 1484 1488 1491 1490 1490 1490 1489 1489 1490 1490 1491 1492 1492 1492 1493 1493 1493 1493 1494 1493 1493 1494 1494 1495 1496 1496 1497 1497 1497 1497 1496 1496 1496 1496 1496 1496
1484 1494 1505 1513 1514 1508 1495 1486 1484 1489 1496 1490 1490 1489 1488 1488 1489 1491 1491 1491 1491 1491 1491 1492 1492 1492 1492 1492 1492 1492 1493 1492 1493 1492 1493 1494 1493 1493 1493 1493 1493 1493 1493 1493
1484 1489 1502 1510 1513 1515 1500 1484 1481 1486 1500 1491 1488 1488 1488 1487 1493 1493 1491 1490 1489 1490 1491 1491 1491 1490 1490 1490 1490 1490 1490 1489 1489 1490 1490 1491 1490 1490 1490 1490 1490 1490 1490 1490
1494 1498 1504 1509 1511 1504 1490 1483 1481 1500 1502 1491 1489 1487 1487 1487 1489 1489 1489 1489 1488 1488 1489 1489 1488 1488 1487 1487 1488 1487 1487 1486 1486 1487 1487 1488 1488 1487 1487 1487 1487 1488 1488 1488
1498 1503 1506 1508 1512 1508 1487 1485 1491 1494 1490 1489 1488 1487 1487 1487 1487 1488 1487 1487 1487 1487 1487 1487 1486 1485 1485 1485 1485 1485 1484 1484 1484 1484 1485 1484 1484 1485 1485 1485 1485 1485 1485 1485
1494 1496 1498 1501 1501 1491 1487 1487 1487 1488 1488 1488 1488 1488 1487 1487 1488 1488 1487 1487 1487 1487 1486 1486 1485 1484 1484 1484 1484 1483 1483 1483 1483 1483 1483 1482 1482 1483 1483 1483 1483 1483 1483 1482
1491 1488 1492 1495 1493 1490 1488 1487 1487 1487 1487 1487 1488 1488 1487 1487 1488 1488 1488 1487 1487 1486 1485 1485 1484 1484 1483 1483 1483 1482 1482 1482 1482 1481 1481 1481 1481 1481 1481 1481 1481 1481 1480 1480
1490 1490 1492 1494 1491 1490 1489 1488 1487 1487 1487 1487 1487 1487 1487 1487 1487 1487 1487 1487 1487 1486 1485 1484 1483 1483 1482 1482 1481 1481 1481 1480 1480 1480 1479 1479 1479 1480 1479 1479 1479 1478 1478 1478
1488 1489 1492 1493 1488 1489 1489 1488 1487 1486 1486 1486 1486 1487 1487 1487 1487 1487 1487 1487 1486 1485 1484 1483 1482 1482 1481 1481 1480 1480 1479 1479 1478 1478 1478 1478 1478 1478 1478 1477 1477 1477 1477 1476